Simultaneous Nadir Overpasses (SNOs) Predictions

Prediction of SNOs between GOES-17 and LANDSAT-8 Satellite Orbit:

Table of predicted SNOs for the next 14.0 days since TLE Epoch: 11/19/2022
Index Date Time (GOES-17) GOES-17 Lat,Lon LANDSAT-8 Lat,Lon Distance(km) Time Diff (sec)
1 11/20/2022 07:17:23 0.03,-137.33 0.20,-136.49 94.71 80
2 11/20/2022 19:38:38 -0.03,-137.33 0.89,-141.65 491.16 80
3 11/22/2022 07:05:13 0.03,-137.31 0.85,-133.55 429.21 80
4 11/22/2022 19:26:27 -0.02,-137.32 0.29,-138.69 156.92 80
5 11/24/2022 19:16:57 -0.02,-137.29 -0.38,-135.75 176.39 80
6 11/25/2022 07:38:21 0.02,-137.28 -0.75,-140.94 415.61 80
7 11/27/2022 07:26:10 0.01,-137.24 -0.14,-137.98 83.51 80
8 11/29/2022 07:11:19 0.00,-137.20 0.48,-135.02 248.18 80
9 11/29/2022 19:32:34 0.00,-137.20 0.66,-140.17 338.73 80
10 12/01/2022 19:20:23 0.00,-137.16 0.04,-137.22 7.55 80
